Regional Weather Roundup
Issued by NWS

Home | Current Version | Previous Version | Text Only | Print | Product List | Glossary On
Versions: 1 2 3 4 5 6 7 8 9 10 11 12 13 14 15 16 17 18 19 20 21 22 23 24 25 26 27 28 29 30 31 32 33 34 35 36 37 38 39 40 41 42 43 44 45 46 47 48 49 50
408
ASUS43 KLOT 170609
RWRIL

ILLINOIS REGIONAL WEATHER ROUNDUP
NATIONAL WEATHER SERVICE CHICAGO/ROMEOVILLE IL
100 AM CDT TUE OCT 17 2017

NOTE: "FAIR" INDICATES FEW OR NO CLOUDS BELOW 12,000 FEET WITH NO
SIGNIFICANT WEATHER AND/OR OBSTRUCTIONS TO VISIBILITY.

* THESE STATIONS ARE NOT UNDER NWS QUALITY CONTROL. THEY ALSO MAY NOT
  REPORT WEATHER SUCH AS PRECIPITATION OR FOG.

ILZ001-002-007-009-015-016-024-170700-
NORTHWEST ILLINOIS

CITY           SKY/WX    TMP DP  RH WIND       PRES   REMARKS
MOLINE         PTCLDY    54  36  50 SW9       30.18F
6HR MIN TEMP:  48; 6HR MAX TEMP:  54;

STERLING*      CLOUDY    48  39  71 CALM        N/A
SAVANNA*       CLOUDY    47  39  74 S6        30.17F
$$

ILZ003-004-008-010-011-017-018-170700-
NORTH CENTRAL ILLINOIS

CITY           SKY/WX    TMP DP  RH WIND       PRES   REMARKS
ROCKFORD       CLEAR     44  37  76 S7        30.19F
6HR MIN TEMP:  44; 6HR MAX TEMP:  53;

FREEPORT*      CLOUDY    50  37  60 SW10      30.18F
ROCHELLE*      CLEAR     42  39  89 S7        30.20S
DE KALB*       CLEAR     41  37  86 S7        30.20S
PERU*          CLEAR     47  38  73 SW7       30.21F
$$

ILZ005-006-012>014-019>023-170700-
NORTHEAST ILLINOIS

CITY           SKY/WX    TMP DP  RH WIND       PRES   REMARKS
CHICAGO-OHARE  CLEAR     49  38  65 SW7       30.20S
6HR MIN TEMP:  48; 6HR MAX TEMP:  57;

CHICAGO-MIDWAY PTCLDY    50  39  66 SW7       30.21S
6HR MIN TEMP:  50; 6HR MAX TEMP:  58;

AURORA         CLEAR     46  39  76 SW7       30.21S
6HR MIN TEMP:  46; 6HR MAX TEMP:  52;

LANSING*       CLEAR     45  39  81 CALM      30.23S
JOLIET*        CLEAR     42  42  98 CALM      30.22S
WAUKEGAN       CLEAR     48  39  71 SW8       30.17S
6HR MIN TEMP:  44; 6HR MAX TEMP:  49;

DUPAGE AIRPORT CLEAR     47  39  74 SW8       30.20S
6HR MIN TEMP:  43; 6HR MAX TEMP:  51;

KANKAKEE*      CLEAR     44  37  76 SW3       30.24F
WHEELING       CLEAR     49  40  71 S6        30.20F
6HR MIN TEMP:  46; 6HR MAX TEMP:  58;

MORRIS*        CLEAR     45  38  75 SW5       30.22R
ROMEOVILLE*    CLEAR     45  40  82 SW6       30.22S
NORTHERLY ISL    N/A     53  37  54 S6          N/A
$$

LMZ740>746-170700-
SOUTHERN LAKE MICHIGAN

STATION/POSITION SKY/WX   TEMP    WIND        PRES    VSBY  WAVE
                          AIR SEA DIR/SP/G                  HT/PER
                          (F)     (DEG/KT/KT) (MB)    (MI)  (FT/S)
SOUTHERN BUOY              60 62  250/ 17/ 19 1021.8F         3/ 5
WILMETTE HARBOR            54 58  210/ 12/ 14   N/A           1/ 2
BURNHAM HARBOR             53     210/  4/  8   N/A
CALUMET HARBOR                    200/  6/  7 1022.4S
BURNS HARBOR               52     200/ 11/ 15 1023.7S
MICHIGAN CITY 6N           55 57  210/ 12/ 14   N/A           2/ 3
ST. JOSEPH                 56 57  220/ 12/ 16 1023.7R         2/ 3
$$

ILZ025>027-034>036-040-047-049-050-058-095>099-170700-
WEST-CENTRAL ILLINOIS

CITY           SKY/WX    TMP DP  RH WIND       PRES   REMARKS
QUINCY         CLEAR     48  39  71 S8        30.23F
GALESBURG*     CLEAR     45  38  76 S5        30.22S
MACOMB*        CLEAR     49  38  67 SW7       30.25S
JACKSONVILLE*  CLEAR     48  39  71 S6        30.26S
PITTSFIELD*    CLEAR     49  40  73 S6        30.27S
$$

ILZ028>032-037-038-041>044-048-051>054-059>061-170700-
CENTRAL ILLINOIS

CITY           SKY/WX    TMP DP  RH WIND       PRES   REMARKS
PONTIAC        CLEAR     50  40  67 SW7       30.24S
BLOOMINGTON    CLEAR     44  38  79 SW10      30.26S
DECATUR        CLEAR     46  38  73 SW8       30.27F
PEORIA         CLEAR     47  39  74 S5        30.23F
6HR MIN TEMP:  45; 6HR MAX TEMP:  57;

LACON*         CLEAR     48  41  76 CALM      30.21F
LINCOLN*       CLEAR     48  41  79 S3        30.26S
SPRINGFIELD    CLEAR     51  40  65 S8        30.26F
6HR MIN TEMP:  45; 6HR MAX TEMP:  56;

TAYLORVILLE    CLEAR     45  38  78 S6        30.28S
6HR MIN TEMP:  45; 6HR MAX TEMP:  54;

$$

ILZ033-039-045-046-055>057-062-063-170700-
EAST-CENTRAL ILLINOIS

CITY           SKY/WX    TMP DP  RH WIND       PRES   REMARKS
CHAMPAIGN      CLEAR     43  37  79 S7        30.27F
DANVILLE*      CLEAR     44  38  78 S6        30.25S
RANTOUL*       CLEAR     47  41  81 SW6       30.26S
MATTOON        CLEAR     50  39  66 S7        30.28S
PARIS*         CLEAR     46  39  77 SW8       30.30S
$$

ILZ079-100>102-170700-
SOUTHWEST ILLINOIS

CITY           SKY/WX    TMP DP  RH WIND       PRES   REMARKS
ALTON          CLEAR     47  41  79 CALM      30.29F
BELLEVILLE     CLEAR     44  41  88 CALM      30.29F
CAHOKIA*       CLEAR     45  41  86 CALM      30.29F
SPARTA*        CLEAR     48  38  67 S3        30.32F
$$

ILZ064>066-069>071-074>076-080>082-084>086-088>090-092>094-170700-
SOUTH-CENTRAL ILLINOIS

CITY           SKY/WX    TMP DP  RH WIND       PRES   REMARKS
CARBONDALE     CLEAR     39  39 100 SE3       30.31F
6HR MIN TEMP:  39; 6HR MAX TEMP:  51;

CAIRO*         CLEAR     39  39 100 CALM      30.33S
EFFINGHAM*     CLEAR     48  38  70 S3        30.32R
MARION         CLEAR     43  42  98 CALM      30.33F
MT. VERNON     CLEAR     38  38 100 CALM      30.32F FOG
CENTRALIA*     CLEAR     44  40  86 CALM      30.30S
METROPOLIS*    CLEAR     40  39  97 CALM      30.34R
$$

ILZ067-068-072-073-078-083-087-091-170700-
SOUTHEAST ILLINOIS

CITY           SKY/WX    TMP DP  RH WIND       PRES   REMARKS
LAWRENCEVILLE  CLEAR    N/A N/A N/A S3        30.32S
FLORA*         CLEAR     46  41  83 CALM      30.32S
FAIRFIELD*     CLEAR     42  41  97 CALM      30.31S
HARRISBURG*    CLEAR     40  39  97 CALM      30.33F
ROBINSON*      CLEAR     42  38  87 CALM      30.32S
CARMI*         CLEAR     39  39  99 CALM      30.32S
$$

ABBREVIATIONS USED IN REMARKS
   TC - TEMPERATURE IN CELSIUS
  WCI - WIND CHILL INDEX
   HX - HEAT INDEX
  VSB - VISIBILITY
$$





USA.gov is the U.S. government's official web portal to all federal, state and local government web resources and services.